STARLINK-32188 (60365 NORAD) Tracking and Keplerian Element Data

This shows tracking and keplerian element data for the satellite.

Feedback or suggestion? Click here.




ElementValue
Catalog60365
NameSTARLINK-32188
Epoch Orbit1192
Epoch Day286.12157245
Epoch Year2024
RAAN180.3606
Inclination53.1597
Eccentricity9.13E-05
Argument of Perigee52.6376
Mean Anonmoly307.4712
Mean Motion15.39590788
Decay Rate-9.781E-05
L11 60365U 24138L 24286.12157245 -.00009781 00000+0 -23510-3 0 9997
L22 60365 53.1597 180.3606 0000913 52.6376 307.4712 15.39590788 11920



Live tracking and technical data element details for STARLINK-32188 (NORAD 60365). STARLINK-32188 can be tracked NOW for your location showing map with azimuth and elevation plus other details from your city location.







IsCatalogInMostPopularTable: catalog: 60365, numindb: 7
Update: records affected: 1



GetName: 60365 STARLINK-32188

Hit Count: updated at: Tue, 03 Dec 2024 02:55:33 GMT